Regional Weather Roundup
Issued by NWS

Home | Current Version | Previous Version | Text Only | Print | Product List | Glossary On
Versions: 1 2 3 4 5 6 7 8 9 10 11 12 13 14 15 16 17 18 19 20 21 22 23 24 25 26 27 28 29 30 31 32 33 34 35 36 37 38 39 40 41 42 43 44 45 46 47 48 49 50
000
ASUS45 KABQ 021801
RWRNM
WEATHER ROUNDUP FOR NEW MEXICO
NATIONAL WEATHER SERVICE ALBUQUERQUE NM
1200 PM MDT THU OCT 02 2014

NOTE: "FAIR" MEANS FEW OR NO CLOUDS BELOW 12,000 FEET AGL WITH NO
       SIGNIFICANT WEATHER OR OBSTRUCTIONS TO VISION.

      THIS PRODUCT IS RELEASED AS TWO VERSIONS.  ONE VERSION NEAR
      THE TOP OF THE HOUR CONTAINING PRELIMINARY DATA FROM ALBUQUERQUE
      AND OTHER STATIONS.  A FINAL VERSION WITH ADDITIONAL DATA IS
      ISSUED ABOUT 10 MINUTES AFTER THE HOUR.

NMZ501-503-504-510>518-021900-
NORTHWEST PLATEAU/NORTHCENTRAL MOUNTAINS

CITY           SKY/WX    TMP DP  RH WIND       PRES   REMARKS
FARMINGTON     SUNNY     56  27  32 W12G17    30.27S
6HR MIN TEMP:  39; 6HR MAX TEMP:  56;

LOS ALAMOS     SUNNY     54  24  32 E8        30.27S
SANTA FE       SUNNY     59  22  24 N15       30.22F
6HR MIN TEMP:  40; 6HR MAX TEMP:  60;

TAOS           SUNNY     54  19  26 NE8       30.26F
ANGEL FIRE     FAIR      49  19  31 SW15G22   30.25F

$$
NMZ402-403-502-505>509-021900-
WESTCENTRAL MOUNTAINS/SOUTHWEST MOUNTAINS

CITY           SKY/WX    TMP DP  RH WIND       PRES   REMARKS
GALLUP         SUNNY     55  23  28 VRB6      30.32S
6HR MIN TEMP:  32; 6HR MAX TEMP:  56;

GRANTS         SUNNY     57  14  18 N10       30.30F
SILVER CITY    SUNNY     72  23  16 N9        30.22S

$$
NMZ407-409-411-412-021900-
SOUTHERN DESERTS

CITY           SKY/WX    TMP DP  RH WIND       PRES   REMARKS
LORDSBURG      FAIR      73  34  23 MISG      30.17R
DEMING         SUNNY     74  35  24 CALM      30.16R
6HR MIN TEMP:  49; 6HR MAX TEMP:  75;

LAS CRUCES     SUNNY     74  34  22 N10       30.17S
HOLLOMAN AFB   SUNNY     74  34  23 N21       30.13R
ALAMOGORDO     SUNNY     73  32  21 N16G23    30.15R
T OR C         SUNNY     69  39  33 NE10      30.20R
6HR MIN TEMP:  54; 6HR MAX TEMP:  70;


$$
NMZ519>523-021900-
CENTRAL VALLEYS/CENTRAL HIGHLANDS

CITY           SKY/WX    TMP DP  RH WIND       PRES   REMARKS
ALBUQUERQUE    SUNNY     61  27  27 N7        30.23F
6HR MIN TEMP:  51; 6HR MAX TEMP:  61;

DOUBLE EAGLE   SUNNY     61  27  27 NW9G17    30.24F
CLINES CORNERS SUNNY     57  25  29 N14G23    30.22S
6HR MIN TEMP:  43; 6HR MAX TEMP:  57;

BELEN          FAIR      62  23  22 N6G17     30.23F
6HR MIN TEMP:  48; 6HR MAX TEMP:  63;

SOCORRO        FAIR      66  23  19 N14G21    30.22F
6HR MIN TEMP:  54; 6HR MAX TEMP:  66;


$$
NMZ524>526-539-540-021900-
SOUTHCENTRAL MOUNTAINS

CITY           SKY/WX    TMP DP  RH WIND       PRES   REMARKS
RUIDOSO        NOT AVBL

$$
NMZ527>531-021900-
NORTHEAST HIGHLANDS/NORTHEAST PLAINS

CITY           SKY/WX    TMP DP  RH WIND       PRES   REMARKS
LAS VEGAS      SUNNY     58  27  30 N8        30.21S
6HR MIN TEMP:  38; 6HR MAX TEMP:  58;

RATON          MOSUNNY   55  29  36 VRB6      30.17F
6HR MIN TEMP:  41; 6HR MAX TEMP:  57;

CLAYTON        SUNNY     62  32  32 N17G32    30.12F
6HR MIN TEMP:  47; 6HR MAX TEMP:  63;


$$
NMZ532>537-021900-
EASTCENTRAL PLAINS

CITY           SKY/WX    TMP DP  RH WIND       PRES   REMARKS
TUCUMCARI      MOSUNNY   68  36  30 N20       30.11F
6HR MIN TEMP:  53; 6HR MAX TEMP:  68;

CANNON AFB     SUNNY     64  38  37 N21G29    30.12R
6HR MIN TEMP:  53; 6HR MAX TEMP:  64;

CLOVIS AIRPORT   N/A     64  39  39 N18G26    30.14S

$$
NMZ028-029-538-021900-
SOUTHEAST PLAINS

CITY           SKY/WX    TMP DP  RH WIND       PRES   REMARKS
ROSWELL        SUNNY     75  36  24 N17G26    30.08S
6HR MIN TEMP:  53; 6HR MAX TEMP:  76;

CARLSBAD       SUNNY     78  44  29 N14       30.06S
6HR MIN TEMP:  54; 6HR MAX TEMP:  78;

HOBBS          SUNNY     72  50  46 N12       30.08S


$$


USA.gov is the U.S. government's official web portal to all federal, state and local government web resources and services.